Hourly Data Report for November 26, 2020

MUSKOKA
ONTARIO
Current Station Operator: NAVCAN

44°58'29.000" N
79°18'12.000" W
281.90 m
6115529
71532
YQA

Download Data

Hourly Data (November 2020)
Hourly Data Report for November 26, 2020
TIME
LST
Temp Definition
°C
Dew Point Definition
°C
Rel Hum Definition
%
Precip. Amount Definition
mm

Wind Dir Definition
10's deg

Wind Spd Definition
km/h
Visibility Definition
km
Stn Press Definition
kPa
Hmdx Definition


Wind Chill Definition


Weather Definition


00:00 3.6 3.3 98 LegendMM 12 11 4.8 97.75     Rain,Fog
01:00 3.9 3.6 98 LegendMM 12 8 8.1 97.69     Rain,Fog
02:00 3.9 3.6 98 LegendMM 12 13 2.8 97.63     Fog
03:00 4.0 3.9 99 LegendMM 12 11 1.6 97.59     Fog
04:00 4.0 3.9 99 LegendMM 12 11 11.3 97.52     Rain
05:00 4.0 3.9 99 LegendMM 12 11 11.3 97.52     LegendNANA
06:00 4.0 3.9 99 LegendMM 12 11 4.0 97.50     Rain,Fog
07:00 4.1 4.0 99 LegendMM 11 11 4.0 97.49     Rain,Fog
08:00 4.1 4.0 99 LegendMM 12 8 3.2 97.52     Rain,Fog
09:00 4.5 4.4 99 LegendMM 12 9 4.0 97.54     Fog
10:00 4.4 4.3 99 LegendMM 14 11 0.8 97.53     Fog
11:00 4.7 4.6 99 LegendMM 15 9 0.2 97.58     Fog
12:00 4.3 4.2 99 LegendMM 17 5 0.2 97.57     Fog
13:00 5.0 4.9 99 LegendMM 22 8 0.2 97.61     Fog
14:00 5.4 5.4 100 LegendMM 20 8 0.2 97.62     Fog
15:00 5.9 5.9 100 LegendMM 25 9 0.2 97.70     Fog
16:00 6.1 6.1 100 LegendMM 25 13 0.2 97.77     Rain,Fog
17:00 5.6 5.6 100 LegendMM 25 11 9.7 97.88     Fog
18:00 5.2 5.2 100 LegendMM 27 9 16.1 97.97     LegendNANA
19:00 5.2 5.2 100 LegendMM 24 8 4.8 98.02     Rain,Fog
20:00 5.3 5.3 100 LegendMM 26 11 16.1 98.10     Rain
21:00 4.8 4.7 99 LegendMM 30 17 6.4 98.14     Rain,Fog
22:00 4.4 4.3 99 LegendMM 23 5 16.1 98.18     Rain
23:00 4.5 3.8 95 LegendMM 23 8 16.1 98.18     LegendNANA

Notes on Data Quality.

Legend

  • E = Estimated
  • M = Missing
  • NA = Not Available*
  • [empty] = Indicates an unobserved value
Date modified: